Location: Heisede
(52.2582°N, 9.8523°E)
Time: 14:22:53
(UTC+00:00)

Meteor 1-11 Rocket - Visible Passes

Search period start: 19 April 2026 00:00
Search period end: 29 April 2026 00:00
Orbit: 831 x 913 km, 81.2° (Epoch: 19 April)

Date Brightness Start Highest point End Pass type
(mag) Time Alt. Az. Time Alt. Az. Time Alt. Az.
19 Apr 4.6 01:34:12 10° N 01:40:00 52° ENE 01:45:40 10° SSE visible
19 Apr 4.6 03:18:00 10° NNW 03:23:08 32° W 03:28:12 10° SSW visible
19 Apr 6.5 23:46:52 10° NNE 23:49:28 13° NE 23:52:02 10° ENE visible
20 Apr 4.5 01:28:33 10° N 01:34:22 54° ENE 01:40:03 10° SSE visible
20 Apr 4.6 03:12:25 10° NNW 03:17:29 31° W 03:22:29 10° SSW visible
20 Apr 6.4 23:41:08 10° NNE 23:43:52 13° NE 23:46:34 10° ENE visible
21 Apr 4.4 01:22:54 10° N 01:28:45 55° ENE 01:34:26 10° SSE visible
21 Apr 4.7 03:06:49 10° NNW 03:11:49 30° W 03:16:45 10° SW visible
21 Apr 6.4 23:35:25 10° NNE 23:38:17 14° NE 23:41:06 10° ENE visible
22 Apr 4.4 01:17:16 10° N 01:23:07 57° ENE 01:28:49 10° SSE visible
22 Apr 4.7 03:01:12 10° NNW 03:06:10 29° W 03:11:01 10° SW visible
22 Apr 6.4 23:29:43 10° NNE 23:32:41 14° NE 23:35:37 10° E visible
23 Apr 4.3 01:11:37 10° N 01:17:29 59° ENE 01:23:00 11° SSE visible
23 Apr 4.8 02:55:37 10° NNW 03:00:29 28° W 03:05:17 10° SW visible
23 Apr 6.3 23:24:01 10° NNE 23:27:06 14° NE 23:30:09 10° E visible
24 Apr 4.2 01:05:59 10° N 01:11:52 61° ENE 01:16:52 14° SSE visible
24 Apr 4.8 02:50:02 10° NNW 02:54:50 27° W 02:59:17 11° SW visible
24 Apr 6.3 23:18:18 10° NNE 23:21:30 15° NE 23:24:39 10° E visible
25 Apr 4.2 01:00:21 10° N 01:06:14 63° ENE 01:10:48 16° SSE visible
25 Apr 4.9 02:44:26 10° NNW 02:49:10 26° W 02:53:13 12° SW visible
25 Apr 6.2 23:12:36 10° NNE 23:15:54 15° NE 23:19:09 10° E visible
26 Apr 4.1 00:54:43 10° N 01:00:36 65° ENE 01:04:48 19° SSE visible
26 Apr 4.9 02:38:51 10° NNW 02:43:29 25° W 02:47:14 13° SW visible
26 Apr 6.2 23:06:55 10° NNE 23:10:19 15° NE 23:13:40 10° E visible
27 Apr 4.0 00:49:05 10° N 00:54:58 67° ENE 00:58:50 21° SSE visible
27 Apr 5.0 02:33:16 10° NNW 02:37:49 24° W 02:41:16 14° SW visible
27 Apr 6.2 23:01:13 10° NNE 23:04:43 16° NE 23:08:09 10° E visible
28 Apr 4.0 00:43:27 10° N 00:49:19 70° ENE 00:52:55 24° SSE visible
28 Apr 5.0 02:27:41 10° NW 02:32:08 23° W 02:35:22 15° SW visible
28 Apr 6.1 22:55:32 10° NNE 22:59:07 16° NE 23:02:39 10° E visible
